Abilene Regional Airport
KABI : now visible

Airfield :











YOU CAN JOIN US ON...

 
LOGIN :

Register | Disclaimer

   EN    FR    IT 

 









Legend :    VFR   Marginal VFR   IFR   Intensive IFR   Very Intensive IFR
Visi :
Ceiling :
>= 8 km
>= 3000ft
5 to 8 km
1000 to 3000 ft
1500m to 5 km
500 to 1000 ft
800 to 1500m
200 to 500 ft
< 800m
< 200 ft
Symbols :   Thunderstorms  Fog  Heavy snow  Heavy precipitations  Wind > 20 kt






- Airport Elevation : 1791 ft


KABI - Abilene Regional

CURRENT METAR :
  • 271652Z 33019KT 10SM CLR 07/M02 A3037 RMK AO2 SLP286 T00671022

EXPIRED METARs :
  • 271552Z 31017G22KT 10SM CLR 07/M03 A3034 RMK AO2 SLP273 T00721033

TAF KABI
Valid from the 27 at 18:00 until the 28 at 18:00 UTC


271736Z 2718/2818 35015G20KT P6SM SKC
FM272200 01009KT P6SM SKC
FM280400 15005KT P6SM SCT250
FM281200 15008KT P6SM BKN250
KZFW FIR / North America



MET'MAP, your aeronautical weather chart ! - Copyright ORBIFLY December 2007 - Disclaimer

ORBIFLY MET'MAP TEAM :

Programming & Development : Alexandra Zaïnal
Concept & original design : Baudouin d'Aumeries
Assistance for programming : Marc-Olivier Méhu
Technical & hardware support : Manuel Goepfert

Contact : metmap@orbifly.com




SOURCES & CREDITS :

   NOAA       Earth
Advisory